This is the latest recevied weather packets stored in our database for station/object G1YBJ-13. If no packets are shown the sender has not sent any weather packets the latest 10 day(s).
| Time | Temp. | Humidity | Pressure | Rain* | Wind** | Luminosity | Snow |
|---|---|---|---|---|---|---|---|
| 1777574786 | 17.22° C | 46% | 1021.7 hPa | - | - | - | - |
| 1777573885 | 17.78° C | 45% | 1021.6 hPa | - | - | - | - |
| 1777572984 | 17.78° C | 45% | 1021.5 hPa | - | - | - | - |
| 1777572083 | 18.33° C | 45% | 1021.4 hPa | - | - | - | - |
| 1777571182 | 18.89° C | 45% | 1021.4 hPa | - | - | - | - |
| 1777570281 | 19.44° C | 43% | 1021.5 hPa | - | - | - | - |
| 1777569380 | 22.22° C | 42% | 1021.6 hPa | - | - | - | - |
| 1777568480 | 22.78° C | 39% | 1021.5 hPa | - | - | - | - |
| 1777567579 | 24.44° C | 40% | 1021.5 hPa | - | - | - | - |
| 1777566678 | 24.44° C | 37% | 1021.4 hPa | - | - | - | - |
| 1777565777 | 26.67° C | 37% | 1021.5 hPa | - | - | - | - |
| 1777564875 | 26.67° C | 36% | 1021.4 hPa | - | - | - | - |
| 1777563974 | 26.67° C | 35% | 1021.5 hPa | - | - | - | - |
| 1777563074 | 26.67° C | 34% | 1021.6 hPa | - | - | - | - |
| 1777562173 | 27.22° C | 35% | 1021.7 hPa | - | - | - | - |
| 1777561270 | 27.78° C | 34% | 1021.9 hPa | - | - | - | - |
| 1777560369 | 26.67° C | 34% | 1022 hPa | - | - | - | - |
| 1777559468 | 26.67° C | 35% | 1022.1 hPa | - | - | - | - |
| 1777557646 | 26.11° C | 39% | 1022.2 hPa | - | - | - | - |
| 1777556745 | 25.56° C | 36% | 1022.3 hPa | - | - | - | - |
| 1777555844 | 25.56° C | 38% | 1022.6 hPa | - | - | - | - |
| 1777554943 | 25° C | 40% | 1022.6 hPa | - | - | - | - |
| 1777554041 | 25° C | 40% | 1022.8 hPa | - | - | - | - |
| 1777553140 | 24.44° C | 39% | 1022.9 hPa | - | - | - | - |
| 1777552239 | 24.44° C | 40% | 1023.1 hPa | - | - | - | - |
* Rain since midnight (hover to see other rain measurements)
** Current wind speed in m/s (hover to see current wind gust speed)